{"data":{"norad_id":60097,"intl_designator":"2024-117G","name":"STARLINK-32003","alt_names":[],"object_type":"PAYLOAD","status":"ACTIVE","operator":null,"country":"US","launch_date":"2024-06-23","launch_site_code":"AFETR","launch_vehicle":null,"mission":null,"orbit_class":"UNKNOWN","rcs_meters":null,"size_class":null,"mass_kg":null,"dimensions":null,"purposes":["comms"],"wikipedia_slug":null,"has_3d_model":false,"image_url":null,"decayed_at":null,"tle_current":{"epoch":"2026-05-25T00:17:59.003808Z","epoch_age_seconds":67950,"freshness":"FRESH","line1":"1 60097U 24117G   26145.01248847  .00002787  00000+0  10624-3 0  9998","line2":"2 60097  53.1598  42.4822 0001120  93.6280 266.4848 15.30187285108578","mean_motion":15.30187285,"eccentricity":0.000112,"inclination_deg":53.1598,"raan_deg":42.4822,"arg_perigee_deg":93.628,"mean_anomaly_deg":266.4848,"bstar":0.00010624,"rev_number":10857,"period_min":94.106127669202,"perigee_km":474.48545469647,"apogee_km":476.02061406417,"semimajor_km":6853.3900343803,"source":"CELESTRAK","updated_at":"2026-05-25T13:38:19.160927Z"}}}